#timestamp,LO_Frequency,Hit,StdDev 
1588611775.2,286047011.8,P
1588611795.1,286047012.3,P
1588611796.0,286047012.3,P
1588611815.8,286047011.6,Y
1588611835.7,286047001.2,P
1588611855.5,286047001.1,N
1588611875.3,286047001.1,N
1588611895.2,286047001.2,N
1588611915.0,286047000.0,N
1588611915.9,286047000.0,N
1588611935.7,286047002.4,N
1588611955.6,286047001.7,N
1588611975.4,286047004.0,N
1588611995.3,286047004.0,N
1588612015.1,286047004.3,N
1588612016.0,286047004.3,N
1588612035.8,286047004.2,N
1588612055.7,286047003.5,N
1588612075.5,286047004.1,N
1588612095.3,286047003.5,N
1588612115.2,286047004.9,N
1588612135.0,286047006.9,N
1588612135.9,286047006.9,N
1588612155.8,286047006.1,N
1588612175.6,286047008.0,N
1588612195.4,286047008.8,Y
1588612215.3,286047003.4,P
1588612235.1,286047004.2,P
1588612255.9,286047001.8,P
1588612275.7,286047002.1,N
1588612295.5,286047001.6,N
1588612315.4,286047002.1,N
1588612335.2,286047002.8,N
1588612355.0,286047001.6,N
1588612355.9,286047001.6,N
1588612375.8,286046999.7,N
1588612395.6,286047002.3,N
1588612415.5,286047001.6,N
1588612435.3,286047001.4,N
1588612455.1,286047001.3,N
1588612475.9,286047004.0,Y
1588612495.7,286047002.3,P
1588612515.5,286047004.4,P
1588612535.4,286047003.6,P
1588612555.2,286047003.8,Y
1588612575.1,286047001.4,P
1588612576.0,286047001.4,N
1588612595.8,286047004.0,P
1588612615.6,286047002.0,N
1588612635.5,286047002.6,N
1588612655.3,286047002.0,N
1588612675.1,286047002.4,N
1588612695.9,286047002.4,N
1588612715.7,286047001.8,N
1588612735.6,286047001.9,N
1588612755.4,286047002.4,Y
1588612775.2,286046998.5,P
1588612795.1,286046998.2,N
1588612796.0,286046998.2,N
1588612815.8,286047000.6,N
1588612835.7,286047000.3,N
1588612855.5,286047001.0,N
1588612875.3,286046999.9,N
1588612895.2,286046999.9,N
1588612915.0,286047002.8,N
1588612915.9,286047002.8,N
1588612935.7,286047002.8,N
1588612955.6,286047001.7,N
1588612975.4,286047004.3,N
1588612995.3,286047004.3,N
1588613015.1,286047004.2,N
1588613016.0,286047004.2,N
1588613035.8,286047001.3,N
1588613055.7,286047001.8,N
1588613075.5,286047004.4,N
1588613095.3,286047001.7,N
1588613115.2,286047004.4,N
1588613135.0,286047001.3,N
1588613135.9,286047001.3,N
1588613155.8,286047004.3,N
1588613175.6,286047003.7,N
1588613195.4,286047003.0,N
1588613215.3,286047005.1,N
1588613235.1,286047007.5,Y
1588613255.9,286047011.9,P
1588613275.7,286047004.5,N
1588613295.5,286047004.6,N
1588613315.4,286047005.5,N
1588613335.2,286047003.4,N
1588613355.0,286047003.8,N
1588613355.9,286047003.8,N
1588613375.8,286047003.1,N
1588613395.6,286047003.0,N
1588613415.5,286047002.9,N
1588613435.3,286047005.9,N
1588613455.1,286047005.2,N
1588613475.9,286047005.0,N
1588613495.7,286047007.1,Y
1588613515.5,286047001.4,P
1588613535.4,286047001.7,N
1588613555.2,286047003.2,N
1588613575.1,286047002.2,N
1588613576.0,286047002.2,N
1588613595.8,286047002.3,N
1588613615.6,286047002.1,N
1588613635.5,286047002.5,N
1588613655.3,286047001.3,N
1588613675.2,286047005.5,Y
1588613695.9,286047002.0,P
1588613715.7,286047002.6,P
1588613735.6,286046999.9,N
1588613755.4,286047000.1,N
1588613775.2,286047002.2,N
1588613795.1,286047002.1,N
1588613796.0,286047002.1,N
1588613815.8,286047002.2,N
1588613835.7,286047003.8,Y
1588613855.5,286047001.9,P
1588613875.3,286047002.2,P
1588613895.2,286047001.3,P
1588613915.0,286047004.1,Y
1588613915.9,286047004.1,P
1588613935.8,286047001.8,N
1588613955.6,286047003.9,P
1588613975.4,286047001.6,N
1588613995.3,286047003.2,N
1588614015.1,286047004.1,Y
1588614035.8,286046999.7,P
1588614055.7,286046999.7,N
1588614075.5,286046999.7,N
1588614095.4,286047002.5,N
1588614115.2,286047002.8,N
1588614135.0,286047002.7,N
1588614135.9,286047002.7,N
1588614155.8,286047002.1,N
1588614175.6,286047002.1,N
1588614195.4,286047004.4,Y
1588614215.3,286047002.1,P
1588614235.1,286047004.4,P
1588614255.9,286047003.6,N
1588614275.7,286047005.5,Y
1588614295.5,286047004.0,P
1588614315.4,286047001.4,N
1588614335.2,286047002.2,N
1588614355.0,286047001.9,N
1588614356.0,286047001.9,N
1588614375.8,286047003.6,Y
1588614395.6,286046999.7,P
1588614415.5,286047002.7,N
1588614435.3,286047001.9,N
1588614455